RH
14 16 17 14 10 9 9 14 13 11 10 11 11 18 18 16 13 15 15 16 17 19 21 24 27 27 29 31 30 31 33 32 30 28 30 30 30 28 30 33 38 43 48 50
15 17 11 8 8 9 10 11 11 10 10 14 11 15 15 15 13 14 14 16 17 19 20 24 27 28 29 32 31 31 33 34 36 30 30 29 26 28 29 31 36 40 43 47
16 14 9 8 8 8 8 10 12 10 10 13 11 13 15 14 14 13 14 14 15 18 20 22 24 28 29 30 32 31 33 33 38 36 34 32 28 30 33 36 38 38 41 43
16 10 10 9 9 10 10 8 8 10 12 13 10 12 15 15 16 15 16 16 16 17 18 20 22 26 29 31 33 32 33 33 37 40 37 37 36 34 34 37 39 37 39 40
16 11 11 10 11 11 13 9 9 9 10 12 12 10 9 14 17 16 17 18 18 18 18 18 20 22 25 31 33 34 34 33 35 38 40 40 42 41 38 40 38 36 36 38
16 12 14 12 10 10 10 12 11 11 13 21 12 12 15 15 15 14 15 17 19 18 19 16 19 21 26 32 35 36 35 31 33 36 39 41 42 42 43 42 37 36 36 36
14 14 13 12 12 11 12 16 43 31 36 36 10 11 10 11 10 10 14 16 19 20 22 20 19 20 23 31 33 34 34 30 31 33 34 35 38 40 41 40 39 42 44 43
19 24 14 14 17 16 14 19 75 53 34 21 11 10 21 12 11 12 10 14 18 22 24 21 18 20 22 25 28 31 29 29 29 29 33 38 40 43 44 48 50 51 51 52
23 21 15 15 15 17 16 27 23 30 30 25 11 17 17 12 13 13 13 14 20 22 24 22 19 20 21 24 26 29 32 33 32 36 41 42 46 48 51 52 53 56 58 60
17 32 15 16 16 18 30 22 46 83 67 49 14 10 15 16 14 14 14 16 21 22 24 22 20 21 21 22 25 30 34 34 36 40 42 48 54 56 55 55 56 56 59 59
16 42 21 19 20 20 31 36 36 51 51 63 38 15 15 16 13 16 16 17 21 24 24 24 20 21 22 26 29 33 36 38 40 41 43 49 56 54 52 51 51 52 53 55
22 41 42 20 20 19 24 24 29 89 63 58 38 27 16 18 17 19 17 18 22 25 25 21 20 22 26 29 29 37 41 41 40 38 38 40 44 41 41 40 41 42 44 45
27 51 65 27 25 22 31 31 94 96 49 57 64 35 18 17 18 18 23 23 25 26 25 25 29 28 30 34 36 37 39 37 34 29 29 31 35 38 39 38 38 40 42 43
24 24 56 66 59 63 76 57 99 93 78 47 35 22 20 18 21 21 25 26 27 26 27 34 35 36 37 38 37 33 32 31 32 32 31 32 33 33 33 33 36 38 40 41
26 64 52 48 28 29 27 38 52 89 45 44 18 13 12 17 20 23 24 24 26 25 28 32 37 39 36 33 29 30 32 32 32 33 33 32 29 29 29 31 34 37 39 43
27 54 34 46 22 20 21 16 26 42 38 29 25 21 14 16 19 22 22 24 27 27 28 30 36 34 29 29 30 31 33 32 31 30 30 26 26 26 28 31 36 39 42 44
34 54 51 51 26 26 51 32 23 22 24 31 34 22 16 18 20 27 29 27 29 28 31 34 32 28 29 30 30 32 32 29 28 26 23 21 24 27 31 36 39 41 43 43
32 45 66 84 36 61 19 16 17 22 22 21 20 19 20 19 22 28 28 28 28 31 33 31 28 30 31 32 32 32 32 29 26 22 20 22 27 32 36 39 39 40 39 40
28 49 94 88 51 27 20 18 17 16 20 16 19 19 20 21 27 30 24 25 32 34 32 36 37 37 35 34 34 34 33 30 25 20 21 27 32 37 38 38 39 38 39 39
28 38 60 64 75 64 38 19 17 17 30 22 19 24 27 30 43 38 28 32 34 34 36 35 35 35 35 34 34 33 32 30 25 22 26 30 34 37 38 38 37 39 38 38
51 62 91 77 56 35 20 18 18 32 54 26 25 31 36 40 44 35 34 35 34 35 36 36 35 35 32 31 30 30 27 25 24 25 29 33 35 36 35 35 40 40 39 39
50 67 84 66 95 67 19 19 24 41 32 28 31 38 49 48 44 40 34 34 33 34 37 36 31 30 29 28 25 22 22 24 27 28 31 32 34 36 36 38 41 40 38 40
48 44 62 56 57 39 21 37 32 29 35 32 37 42 46 46 41 37 36 34 35 36 32 30 29 28 25 22 22 25 26 28 29 30 32 33 35 37 38 40 41 40 41 43
28 30 58 48 35 34 34 32 28 29 34 34 38 41 41 42 36 36 35 36 36 32 30 29 26 21 22 24 24 25 26 29 31 31 33 35 37 42 47 47 44 45 46 46
31 33 37 40 35 37 34 32 29 34 35 37 37 37 37 35 35 34 34 32 30 30 27 21 22 24 25 26 26 28 30 31 31 34 35 37 43 51 51 51 54 54 50 48
34 39 42 49 34 38 39 34 33 37 36 34 36 36 34 36 33 32 32 32 28 22 22 24 25 27 28 29 30 30 29 33 38 40 39 42 57 60 61 64 61 50 49 48
Wind_Speed
8 8 12 16 4 12 6 15 11 11 12 12 7 14 14 14 13 13 12 11 10 10 12 9 8 6 10 7 8 8 10 11 10 10 10 11 9 11 12 12 13 16 15 18
8 5 6 4 2 6 9 8 11 6 6 5 8 13 15 16 15 14 13 13 12 12 12 12 9 8 6 7 5 7 9 10 10 11 10 3 7 11 11 12 13 13 14 15
5 7 3 1 4 6 6 8 8 5 8 10 9 12 17 17 16 15 14 13 13 12 11 12 10 10 7 7 3 6 6 7 10 12 10 13 11 11 11 11 12 9 12 13
6 1 2 6 6 8 6 7 2 6 9 2 12 7 19 19 18 17 14 11 11 11 11 15 12 12 6 8 5 3 4 5 8 9 10 11 13 13 11 12 12 10 9 10
3 3 4 7 6 7 6 4 4 6 9 9 9 6 14 20 17 16 15 14 11 11 10 10 11 13 8 10 7 4 2 3 4 4 7 9 10 12 14 13 14 8 12 10
4 2 6 6 5 4 4 3 3 3 7 6 16 8 10 16 17 18 17 15 14 11 11 12 12 11 13 9 6 4 2 1 1 1 3 5 7 9 12 14 14 11 13 13
6 2 2 6 6 3 6 5 2 5 4 5 5 4 9 9 11 15 19 18 16 14 11 12 13 12 12 16 10 6 5 3 2 3 5 7 9 12 15 15 16 17 18 18
7 3 4 2 3 3 8 7 2 4 3 4 7 6 3 11 7 4 3 17 16 14 11 12 13 13 13 8 7 6 3 4 6 7 9 11 14 15 16 17 20 20 20 18
6 5 3 4 4 4 5 3 6 4 6 3 5 5 3 9 9 7 5 10 15 14 12 12 13 13 10 13 10 7 1 7 9 8 11 11 12 14 16 17 18 18 19 20
2 4 4 3 3 3 4 5 2 2 1 3 6 11 1 13 12 9 9 7 13 14 14 13 13 15 9 8 3 4 3 6 8 10 9 10 11 13 15 16 18 19 21 22
2 4 4 2 7 8 3 2 3 3 3 2 3 1 6 10 10 11 9 8 8 12 12 10 12 13 12 5 4 7 7 7 8 8 9 10 11 13 15 17 18 19 21 23
1 3 4 5 3 4 5 9 8 3 4 3 4 4 4 6 6 6 6 7 6 10 10 12 13 11 9 8 7 9 6 5 7 9 9 10 11 14 16 18 19 20 21 22
6 4 2 3 3 2 4 3 4 2 2 5 2 2 4 4 3 2 6 5 7 8 10 9 15 12 12 10 6 6 6 7 8 9 10 11 12 14 16 18 19 20 22 23
1 3 5 3 3 4 2 3 3 4 3 2 12 11 8 9 8 7 6 6 8 6 10 11 13 13 11 8 6 6 6 6 8 10 12 13 13 14 16 18 19 21 22 23
2 3 1 2 6 6 6 5 11 9 15 6 9 13 7 8 8 7 8 6 8 7 10 9 10 11 9 6 4 4 5 6 9 11 13 15 16 15 18 19 21 22 23 23
4 2 2 3 10 10 11 11 13 16 18 19 20 22 16 4 6 7 6 9 8 9 9 8 10 8 6 4 2 3 6 9 11 12 14 16 16 18 20 22 22 23 23 25
7 2 2 3 2 5 6 17 18 16 11 17 15 14 12 5 8 6 5 7 9 9 9 8 8 6 5 2 2 6 9 12 13 14 16 18 17 19 21 22 23 24 24 25
5 5 2 2 1 4 6 2 4 10 15 16 13 10 6 4 10 7 6 7 9 10 8 9 8 6 2 2 5 8 10 13 16 17 18 16 18 20 22 23 23 23 24 25
6 4 2 2 5 10 12 6 2 4 6 9 11 6 6 6 10 7 7 8 8 11 10 11 7 3 1 4 6 10 13 15 17 18 17 17 19 20 23 23 23 22 23 25
6 5 4 3 3 4 3 4 1 1 3 6 8 6 11 9 5 6 8 12 15 14 10 8 4 1 3 6 9 11 14 15 16 17 17 19 20 22 23 23 23 22 24 27
4 2 5 4 4 6 6 5 2 2 2 5 5 11 12 5 4 11 16 14 12 11 8 4 1 4 7 10 13 14 17 17 17 19 19 20 22 24 24 26 21 24 24 27
8 7 4 4 2 7 6 4 3 4 3 3 6 10 13 12 11 11 13 12 10 9 7 2 4 7 10 13 15 17 18 19 19 20 19 21 23 23 25 22 24 23 25 24
5 5 4 8 4 4 3 7 4 2 5 4 8 13 13 12 11 11 9 9 6 3 2 5 8 11 13 15 16 18 19 20 21 21 22 21 22 24 22 23 23 23 22 24
6 5 1 2 5 6 6 4 3 6 7 6 11 12 12 12 10 9 9 7 3 0 4 8 11 14 15 16 18 20 22 22 22 23 23 22 24 21 22 23 22 21 23 23
1 7 6 6 4 7 4 6 5 10 10 11 14 13 12 11 8 8 8 6 3 5 8 11 13 14 17 19 20 21 23 24 24 24 25 26 22 20 22 22 23 24 26 24
6 6 4 3 5 6 11 8 11 11 11 11 11 12 13 14 10 8 6 4 6 9 10 12 14 16 18 20 21 22 23 25 28 28 27 25 22 23 22 21 24 27 27 26
Wind_Direction
213 180 174 181 338 302 182 126 172 139 162 200 186 139 171 186 184 187 175 167 169 146 147 132 122 114 102 86 81 60 57 38 38 42 46 41 32 42 38 28 16 22 13 21
185 105 49 64 329 281 106 166 113 122 192 271 189 157 175 186 197 186 184 182 168 144 157 150 153 133 116 113 76 72 56 50 29 35 27 17 41 55 45 39 25 18 16 16
188 77 12 142 193 189 159 170 166 193 187 251 192 187 185 188 199 196 197 185 172 168 176 160 154 154 154 117 94 80 66 69 39 21 34 21 42 51 40 36 24 23 23 17
60 75 97 209 144 356 157 56 180 152 197 261 204 271 186 188 196 201 194 194 181 179 174 167 165 153 154 128 126 106 80 65 66 36 38 24 17 15 19 27 356 19 14 21
66 140 200 205 68 350 87 151 209 204 244 316 204 251 220 179 199 199 198 193 192 177 168 169 172 161 178 144 148 133 136 118 80 46 31 13 9 354 353 351 340 356 354 357
72 31 18 34 113 4 130 163 215 264 257 262 251 209 149 179 198 198 195 191 191 186 168 179 167 152 150 141 163 176 233 121 95 7 344 334 330 331 328 310 325 333 336 332
146 75 17 305 120 149 218 198 220 225 183 247 67 190 270 118 176 196 186 184 183 182 168 173 168 171 171 160 168 191 199 258 257 285 324 336 334 325 312 323 319 332 328 322
176 195 177 155 356 291 220 215 171 266 261 323 145 237 127 125 120 67 172 175 173 172 163 171 183 180 161 147 172 185 262 296 351 332 346 351 341 333 331 335 334 327 316 316
199 123 85 338 354 327 192 240 353 290 294 278 256 122 140 144 151 158 178 167 166 167 164 173 194 168 169 168 186 192 271 320 323 5 4 357 353 352 351 344 342 339 338 335
355 111 189 126 306 248 316 335 176 31 113 247 265 272 157 175 175 177 184 203 164 166 162 171 191 161 181 191 157 94 58 352 24 17 2 356 360 357 353 349 348 346 341 338
158 102 147 93 210 198 191 230 238 190 233 274 312 351 355 171 187 171 188 176 178 160 160 166 173 170 181 120 72 64 53 16 23 11 2 359 359 355 349 348 347 343 339 337
124 87 174 204 75 343 318 226 199 154 248 243 316 280 43 58 68 134 161 156 153 142 150 164 173 142 116 104 78 91 61 30 16 1 0 358 355 350 350 345 342 341 337 335
147 172 124 218 199 220 235 216 94 49 350 238 192 240 127 125 153 185 126 146 135 152 148 122 84 86 93 90 76 57 61 27 7 356 352 350 350 345 341 335 335 335 334 332
48 242 201 211 87 109 241 217 143 135 196 244 242 270 195 199 198 174 143 143 141 150 113 97 88 80 75 73 68 51 43 14 357 347 343 341 341 337 333 333 334 333 330 330
231 240 221 249 255 205 218 214 193 198 223 210 261 256 298 180 178 159 140 147 131 142 118 117 118 108 108 86 75 41 11 351 344 338 334 330 331 337 333 335 333 330 332 331
203 267 250 262 245 236 259 248 222 215 241 250 262 274 297 124 118 137 157 167 150 140 135 136 122 129 127 111 39 354 352 342 333 328 325 327 329 336 334 333 332 332 331 331
181 212 152 250 342 311 290 237 235 224 217 220 242 258 277 156 145 136 143 145 146 147 135 135 130 117 96 81 10 360 339 333 330 327 325 324 334 334 331 330 329 325 327 325
210 171 162 279 134 251 255 122 253 248 250 229 238 261 355 41 122 119 124 145 142 138 140 126 133 131 123 11 357 339 332 328 328 329 324 328 334 329 324 322 319 324 325 322
232 139 201 184 221 285 299 188 210 221 292 235 226 241 145 85 97 92 125 135 126 126 121 102 99 93 343 330 330 325 324 325 326 323 328 332 325 321 317 315 320 322 322 327
212 211 198 183 238 256 72 107 24 8 241 358 317 147 121 117 173 167 139 123 109 111 117 133 132 208 307 316 315 314 312 314 318 327 329 324 322 316 312 314 316 322 326 321
178 197 205 243 254 282 107 131 179 208 43 2 353 108 115 116 63 98 107 109 127 138 144 148 212 315 315 320 314 317 314 316 324 327 322 320 315 313 314 317 325 322 322 321
172 167 184 192 212 260 121 146 228 85 80 70 84 107 99 104 102 109 119 134 146 152 144 210 296 310 317 317 327 319 317 320 322 318 316 313 312 315 315 319 319 320 317 320
199 199 175 192 216 121 97 85 79 103 126 118 106 103 116 123 126 128 139 141 129 94 354 326 317 315 324 330 322 319 319 320 318 315 309 309 312 312 317 321 320 318 324 320
225 144 186 54 188 179 130 101 158 133 105 92 105 114 124 128 140 137 137 143 130 52 330 319 330 327 321 325 326 326 322 321 317 312 312 313 312 323 326 317 317 321 317 317
125 144 211 226 178 105 171 167 153 98 102 96 108 126 129 134 138 127 99 86 9 336 346 338 323 326 326 330 327 327 326 325 325 326 324 318 320 320 315 315 317 311 307 310
175 188 195 230 193 188 154 129 120 122 120 115 111 112 113 104 91 92 84 38 11 351 333 333 331 329 327 327 328 326 331 337 332 322 315 316 325 320 319 315 310 307 306 312